owner,sensor,date,latitude,longitude,vertical_datum,direction_of_sea_water_velocity,sea_water_speed,upward_sea_water_velocity,qcFlag 
TABS,ioos:station:wmo:42044:1,2009-03-01T00:00:00Z,26.1914,-97.0507,2.0,176.2223689,56.16201207,-99999.0,'11111222,11111222,99999999' 
TABS,ioos:station:wmo:42044:1,2009-03-01T00:30:00Z,26.1914,-97.0507,2.0,174.6982973,50.86759774,-99999.0,'11111222,11111222,99999999' 
TABS,ioos:station:wmo:42044:1,2009-03-01T01:00:00Z,26.1914,-97.0507,2.0,177.2968051,52.5885092,-99999.0,'11111222,11111222,99999999' 
TABS,ioos:station:wmo:42044:1,2009-03-01T01:30:00Z,26.1914,-97.0507,2.0,176.7833884,48.65664703,-99999.0,'11111222,11111222,99999999' 
TABS,ioos:station:wmo:42044:1,2009-03-01T02:00:00Z,26.1914,-97.0507,2.0,177.5650838,44.01973762,-99999.0,'11111222,11111222,99999999' 
TABS,ioos:station:wmo:42044:1,2009-03-01T02:30:00Z,26.1914,-97.0507,2.0,180.3211452,42.79067305,-99999.0,'11111222,11111222,99999999' 
TABS,ioos:station:wmo:42044:1,2009-03-01T03:00:00Z,26.1914,-97.0507,2.0,175.0465436,43.66306105,-99999.0,'11111222,11111222,99999999' 
TABS,ioos:station:wmo:42044:1,2009-03-01T03:30:00Z,26.1914,-97.0507,2.0,178.144923,43.2526635,-99999.0,'11111222,11111222,99999999' 
TABS,ioos:station:wmo:42044:1,2009-03-01T04:00:00Z,26.1914,-97.0507,2.0,175.6943057,41.95840917,-99999.0,'11111222,11111222,99999999' 
TABS,ioos:station:wmo:42044:1,2009-03-01T04:30:00Z,26.1914,-97.0507,2.0,178.1574239,42.30186757,-99999.0,'11111222,11111222,99999999' 
TABS,ioos:station:wmo:42044:1,2009-03-01T05:00:00Z,26.1914,-97.0507,2.0,177.3529377,42.87574256,-99999.0,'11111222,11111222,99999999' 
TABS,ioos:station:wmo:42044:1,2009-03-01T05:30:00Z,26.1914,-97.0507,2.0,176.1469212,44.19989706,-99999.0,'11111222,11111222,99999999' 
TABS,ioos:station:wmo:42044:1,2009-03-01T06:00:00Z,26.1914,-97.0507,2.0,177.4716261,45.11391138,-99999.0,'11111222,11111222,99999999' 
TABS,ioos:station:wmo:42044:1,2009-03-01T06:30:00Z,26.1914,-97.0507,2.0,175.0163893,47.19841523,-99999.0,'11111222,11111222,99999999' 
TABS,ioos:station:wmo:42044:1,2009-03-01T07:00:00Z,26.1914,-97.0507,2.0,179.5304041,39.06131078,-99999.0,'11111222,11111222,99999999' 
TABS,ioos:station:wmo:42044:1,2009-03-01T07:30:00Z,26.1914,-97.0507,2.0,185.1544653,43.07420226,-99999.0,'11111222,11111222,99999999' 
TABS,ioos:station:wmo:42044:1,2009-03-01T08:00:00Z,26.1914,-97.0507,2.0,184.5302177,42.03132641,-99999.0,'11111222,11111222,99999999' 
TABS,ioos:station:wmo:42044:1,2009-03-01T08:30:00Z,26.1914,-97.0507,2.0,171.0047738,42.53307654,-99999.0,'11111222,11111222,99999999' 
TABS,ioos:station:wmo:42044:1,2009-03-01T09:00:00Z,26.1914,-97.0507,2.0,187.4096103,44.66297908,-99999.0,'11111222,11111222,99999999' 
TABS,ioos:station:wmo:42044:1,2009-03-01T22:30:00Z,26.1914,-97.0507,2.0,185.4917006,27.37566255,-99999.0,'11111222,11111222,99999999' 
TABS,ioos:station:wmo:42044:1,2009-03-01T23:00:00Z,26.1914,-97.0507,2.0,185.3442201,26.62574882,-99999.0,'11111222,11111222,99999999' 
TABS,ioos:station:wmo:42044:1,2009-03-01T23:30:00Z,26.1914,-97.0507,2.0,175.5757087,29.42768255,-99999.0,'11111222,11111222,99999999' 
TABS,ioos:station:wmo:42044:1,2009-03-02T00:00:00Z,26.1914,-97.0507,2.0,167.0191162,27.77989381,-99999.0,'11111222,11111222,99999999' 
TABS,ioos:station:wmo:42044:1,2009-03-02T00:30:00Z,26.1914,-97.0507,2.0,177.1423522,23.06868223,-99999.0,'11111222,11111222,99999999' 
TABS,ioos:station:wmo:42044:1,2009-03-02T01:00:00Z,26.1914,-97.0507,2.0,170.1867996,24.1736799,-99999.0,'11111222,11111222,99999999' 
TABS,ioos:station:wmo:42044:1,2009-03-02T01:30:00Z,26.1914,-97.0507,2.0,183.6804031,22.27594667,-99999.0,'11111222,11111222,99999999' 
TABS,ioos:station:wmo:42044:1,2009-03-02T02:00:00Z,26.1914,-97.0507,2.0,177.2721615,20.59333144,-99999.0,'11111222,11111222,99999999' 
TABS,ioos:station:wmo:42044:1,2009-03-02T02:30:00Z,26.1914,-97.0507,2.0,183.3984128,15.68759064,-99999.0,'11111222,11111222,99999999' 
TABS,ioos:station:wmo:42044:1,2009-03-02T03:00:00Z,26.1914,-97.0507,2.0,185.2186722,14.8415262,-99999.0,'11111222,11111222,99999999' 
TABS,ioos:station:wmo:42044:1,2009-03-02T03:30:00Z,26.1914,-97.0507,2.0,193.4898405,15.77523375,-99999.0,'11111222,11111222,99999999' 
TABS,ioos:station:wmo:42044:1,2009-03-02T04:00:00Z,26.1914,-97.0507,2.0,179.0857485,17.55223348,-99999.0,'11111222,11111222,99999999' 
TABS,ioos:station:wmo:42044:1,2009-03-02T04:30:00Z,26.1914,-97.0507,2.0,191.1784644,12.84367938,-99999.0,'11111222,11111222,99999999' 
TABS,ioos:station:wmo:42044:1,2009-03-02T05:00:00Z,26.1914,-97.0507,2.0,191.05906,13.44977323,-99999.0,'11111222,11111222,99999999' 
TABS,ioos:station:wmo:42044:1,2009-03-02T05:30:00Z,26.1914,-97.0507,2.0,197.1245493,9.543086503,-99999.0,'11133222,11111222,99999999' 
TABS,ioos:station:wmo:42044:1,2009-03-02T06:00:00Z,26.1914,-97.0507,2.0,173.3926717,10.42926651,-99999.0,'11111222,11111222,99999999' 
TABS,ioos:station:wmo:42044:1,2009-03-02T06:30:00Z,26.1914,-97.0507,2.0,177.3160207,8.969838349,-99999.0,'11133222,11111222,99999999' 
TABS,ioos:station:wmo:42044:1,2009-03-02T07:00:00Z,26.1914,-97.0507,2.0,211.7070092,4.889836398,-99999.0,'11133222,11111222,99999999' 
TABS,ioos:station:wmo:42044:1,2009-03-02T07:30:00Z,26.1914,-97.0507,2.0,209.8703676,3.955477215,-99999.0,'11133222,11111222,99999999' 
TABS,ioos:station:wmo:42044:1,2009-03-02T08:00:00Z,26.1914,-97.0507,2.0,242.7579013,4.544007042,-99999.0,'11133222,11111222,99999999' 
TABS,ioos:station:wmo:42044:1,2009-03-02T08:30:00Z,26.1914,-97.0507,2.0,232.5631625,3.438168117,-99999.0,'11133222,11111222,99999999' 
TABS,ioos:station:wmo:42044:1,2009-03-02T09:00:00Z,26.1914,-97.0507,2.0,240.7883551,4.262018301,-99999.0,'11133222,11111222,99999999' 
TABS,ioos:station:wmo:42044:1,2009-03-02T09:30:00Z,26.1914,-97.0507,2.0,308.625871,2.611225766,-99999.0,'11133222,11111222,99999999' 
TABS,ioos:station:wmo:42044:1,2009-03-02T10:00:00Z,26.1914,-97.0507,2.0,275.3467419,3.756341305,-99999.0,'11133222,11111222,99999999' 
TABS,ioos:station:wmo:42044:1,2009-03-02T10:30:00Z,26.1914,-97.0507,2.0,312.4926198,3.878659562,-99999.0,'11133222,11111222,99999999' 
TABS,ioos:station:wmo:42044:1,2009-03-02T11:00:00Z,26.1914,-97.0507,2.0,323.4915961,5.076100866,-99999.0,'11133222,11111222,99999999' 
TABS,ioos:station:wmo:42044:1,2009-03-02T11:30:00Z,26.1914,-97.0507,2.0,304.3133251,10.71466752,-99999.0,'11111222,11111222,99999999' 
TABS,ioos:station:wmo:42044:1,2009-03-02T12:00:00Z,26.1914,-97.0507,2.0,305.9435025,11.00543956,-99999.0,'11111222,11111222,99999999' 
TABS,ioos:station:wmo:42044:1,2009-03-02T12:30:00Z,26.1914,-97.0507,2.0,310.0792004,10.4684144,-99999.0,'11111222,11111222,99999999' 
TABS,ioos:station:wmo:42044:1,2009-03-02T13:00:00Z,26.1914,-97.0507,2.0,326.0665949,11.08855716,-99999.0,'11111222,11111222,99999999' 
TABS,ioos:station:wmo:42044:1,2009-03-02T13:30:00Z,26.1914,-97.0507,2.0,334.0579756,10.69798112,-99999.0,'11111222,11111222,99999999' 
TABS,ioos:station:wmo:42044:1,2009-03-02T14:00:00Z,26.1914,-97.0507,2.0,336.5955756,10.22095886,-99999.0,'11111222,11111222,99999999' 
TABS,ioos:station:wmo:42044:1,2009-03-02T14:30:00Z,26.1914,-97.0507,2.0,331.8840743,11.56470925,-99999.0,'11111222,11111222,99999999' 
TABS,ioos:station:wmo:42044:1,2009-03-02T15:00:00Z,26.1914,-97.0507,2.0,342.8004583,10.4158005,-99999.0,'11111222,11111222,99999999' 
TABS,ioos:station:wmo:42044:1,2009-03-02T15:30:00Z,26.1914,-97.0507,2.0,344.5688711,8.26806507,-99999.0,'11133222,11111222,99999999' 
TABS,ioos:station:wmo:42044:1,2009-03-02T16:00:00Z,26.1914,-97.0507,2.0,356.8879091,8.47249668,-99999.0,'11133222,11111222,99999999' 
TABS,ioos:station:wmo:42044:1,2009-03-02T16:30:00Z,26.1914,-97.0507,2.0,0.643954667,7.120449424,-99999.0,'11133222,11111222,99999999' 
TABS,ioos:station:wmo:42044:1,2009-03-02T17:00:00Z,26.1914,-97.0507,2.0,357.3242093,9.210043431,-99999.0,'11133222,11111222,99999999' 
TABS,ioos:station:wmo:42044:1,2009-03-02T17:30:00Z,26.1914,-97.0507,2.0,12.48067889,6.431990361,-99999.0,'11133222,11111222,99999999' 
TABS,ioos:station:wmo:42044:1,2009-03-02T18:00:00Z,26.1914,-97.0507,2.0,16.34238244,6.148406298,-99999.0,'11133222,11111222,99999999' 
TABS,ioos:station:wmo:42044:1,2009-03-02T18:30:00Z,26.1914,-97.0507,2.0,9.107523474,6.633626459,-99999.0,'11133222,11111222,99999999' 
TABS,ioos:station:wmo:42044:1,2009-03-02T19:00:00Z,26.1914,-97.0507,2.0,11.63145717,6.99361137,-99999.0,'11133222,11111222,99999999' 
TABS,ioos:station:wmo:42044:1,2009-03-02T19:30:00Z,26.1914,-97.0507,2.0,15.12084951,4.485287059,-99999.0,'11133222,11111222,99999999' 
TABS,ioos:station:wmo:42044:1,2009-03-02T20:00:00Z,26.1914,-97.0507,2.0,266.3911187,2.224410034,-99999.0,'11133222,11111222,99999999' 
TABS,ioos:station:wmo:42044:1,2009-03-02T20:30:00Z,26.1914,-97.0507,2.0,315.0003157,2.969848481,-99999.0,'11133222,11111222,99999999' 
TABS,ioos:station:wmo:42044:1,2009-03-02T21:00:00Z,26.1914,-97.0507,2.0,254.6020021,3.879239616,-99999.0,'11133222,11111222,99999999' 
TABS,ioos:station:wmo:42044:1,2009-03-02T21:30:00Z,26.1914,-97.0507,2.0,264.6815325,3.776254758,-99999.0,'11133222,11111222,99999999' 
TABS,ioos:station:wmo:42044:1,2009-03-02T22:00:00Z,26.1914,-97.0507,2.0,284.9414149,3.839817704,-99999.0,'11133222,11111222,99999999' 
TABS,ioos:station:wmo:42044:1,2009-03-02T22:30:00Z,26.1914,-97.0507,2.0,287.0721936,5.450146787,-99999.0,'11133222,11111222,99999999' 
TABS,ioos:station:wmo:42044:1,2009-03-02T23:00:00Z,26.1914,-97.0507,2.0,280.8795407,6.781887643,-99999.0,'11133222,11111222,99999999' 
TABS,ioos:station:wmo:42044:1,2009-03-02T23:30:00Z,26.1914,-97.0507,2.0,290.3551323,5.663656063,-99999.0,'11133222,11111222,99999999' 
TABS,ioos:station:wmo:42044:1,2009-03-03T00:00:00Z,26.1914,-97.0507,2.0,274.3428083,8.584643266,-99999.0,'11133222,11111222,99999999' 
TABS,ioos:station:wmo:42044:1,2009-03-03T00:30:00Z,26.1914,-97.0507,2.0,287.1610688,6.54120784,-99999.0,'11133222,11111222,99999999' 
TABS,ioos:station:wmo:42044:1,2009-03-03T01:00:00Z,26.1914,-97.0507,2.0,289.5605448,7.407482703,-99999.0,'11133222,11111222,99999999' 
TABS,ioos:station:wmo:42044:1,2009-03-03T01:30:00Z,26.1914,-97.0507,2.0,289.6621062,4.874187112,-99999.0,'11133222,11111222,99999999' 
TABS,ioos:station:wmo:42044:1,2009-03-03T02:00:00Z,26.1914,-97.0507,2.0,293.894412,5.949932773,-99999.0,'11133222,11111222,99999999' 
TABS,ioos:station:wmo:42044:1,2009-03-03T02:30:00Z,26.1914,-97.0507,2.0,301.6078493,6.105735009,-99999.0,'11133222,11111222,99999999' 
TABS,ioos:station:wmo:42044:1,2009-03-03T03:00:00Z,26.1914,-97.0507,2.0,308.6759794,5.648805183,-99999.0,'11133222,11111222,99999999' 
TABS,ioos:station:wmo:42044:1,2009-03-03T03:30:00Z,26.1914,-97.0507,2.0,309.1936024,3.354757815,-99999.0,'11133222,11111222,99999999' 
TABS,ioos:station:wmo:42044:1,2009-03-03T04:00:00Z,26.1914,-97.0507,2.0,324.7958185,4.197773219,-99999.0,'11133222,11111222,99999999' 
TABS,ioos:station:wmo:42044:1,2009-03-03T04:30:00Z,26.1914,-97.0507,2.0,321.7213295,4.229278898,-99999.0,'11133222,11111222,99999999' 
TABS,ioos:station:wmo:42044:1,2009-03-03T05:00:00Z,26.1914,-97.0507,2.0,304.5155247,4.429740399,-99999.0,'11133222,11111222,99999999' 
TABS,ioos:station:wmo:42044:1,2009-03-03T05:30:00Z,26.1914,-97.0507,2.0,325.7976865,4.340702708,-99999.0,'11133222,11111222,99999999' 
TABS,ioos:station:wmo:42044:1,2009-03-03T06:00:00Z,26.1914,-97.0507,2.0,335.5003965,5.088123426,-99999.0,'11133222,11111222,99999999' 
TABS,ioos:station:wmo:42044:1,2009-03-03T06:30:00Z,26.1914,-97.0507,2.0,329.470576,3.169384798,-99999.0,'11133222,11111222,99999999' 
TABS,ioos:station:wmo:42044:1,2009-03-03T07:00:00Z,26.1914,-97.0507,2.0,286.6347092,4.22689011,-99999.0,'11133222,11111222,99999999' 
TABS,ioos:station:wmo:42044:1,2009-03-03T07:30:00Z,26.1914,-97.0507,2.0,288.0558908,4.775143977,-99999.0,'11133222,11111222,99999999' 
TABS,ioos:station:wmo:42044:1,2009-03-03T08:00:00Z,26.1914,-97.0507,2.0,323.1522843,5.236000382,-99999.0,'11133222,11111222,99999999' 
TABS,ioos:station:wmo:42044:1,2009-03-03T08:30:00Z,26.1914,-97.0507,2.0,338.923431,8.369958184,-99999.0,'11133222,11111222,99999999' 
TABS,ioos:station:wmo:42044:1,2009-03-03T09:00:00Z,26.1914,-97.0507,2.0,309.856633,4.337891193,-99999.0,'11133222,11111222,99999999' 
TABS,ioos:station:wmo:42044:1,2009-03-03T09:30:00Z,26.1914,-97.0507,2.0,291.6058976,5.431620384,-99999.0,'11133222,11111222,99999999' 
TABS,ioos:station:wmo:42044:1,2009-03-03T10:00:00Z,26.1914,-97.0507,2.0,304.6131589,3.961073087,-99999.0,'11133222,11111222,99999999' 
TABS,ioos:station:wmo:42044:1,2009-03-03T10:30:00Z,26.1914,-97.0507,2.0,300.8501067,4.309767975,-99999.0,'11133222,11111222,99999999' 
TABS,ioos:station:wmo:42044:1,2009-03-03T11:00:00Z,26.1914,-97.0507,2.0,301.8079108,6.754346749,-99999.0,'11133222,11111222,99999999' 
TABS,ioos:station:wmo:42044:1,2009-03-03T11:30:00Z,26.1914,-97.0507,2.0,312.6673388,7.643088381,-99999.0,'11133222,11111222,99999999' 
TABS,ioos:station:wmo:42044:1,2009-03-03T12:00:00Z,26.1914,-97.0507,2.0,301.0667485,4.786533192,-99999.0,'11133222,11111222,99999999' 
TABS,ioos:station:wmo:42044:1,2009-03-03T12:30:00Z,26.1914,-97.0507,2.0,306.1935436,7.112496046,-99999.0,'11133222,11111222,99999999' 
TABS,ioos:station:wmo:42044:1,2009-03-03T13:00:00Z,26.1914,-97.0507,2.0,306.2786383,7.55440269,-99999.0,'11133222,11111222,99999999' 
TABS,ioos:station:wmo:42044:1,2009-03-03T13:30:00Z,26.1914,-97.0507,2.0,327.6227526,7.507063341,-99999.0,'11133222,11111222,99999999' 
TABS,ioos:station:wmo:42044:1,2009-03-03T14:00:00Z,26.1914,-97.0507,2.0,337.7007555,8.117049957,-99999.0,'11133222,11111222,99999999' 
TABS,ioos:station:wmo:42044:1,2009-03-03T14:30:00Z,26.1914,-97.0507,2.0,332.7320551,8.381413962,-99999.0,'11133222,11111222,99999999' 
TABS,ioos:station:wmo:42044:1,2009-03-03T15:00:00Z,26.1914,-97.0507,2.0,321.5476825,12.09261345,-99999.0,'11111222,11111222,99999999' 
TABS,ioos:station:wmo:42044:1,2009-03-03T15:30:00Z,26.1914,-97.0507,2.0,319.9637295,11.11497188,-99999.0,'11111222,11111222,99999999' 
TABS,ioos:station:wmo:42044:1,2009-03-03T16:00:00Z,26.1914,-97.0507,2.0,319.8561472,13.86663622,-99999.0,'11111222,11111222,99999999' 
TABS,ioos:station:wmo:42044:1,2009-03-03T16:30:00Z,26.1914,-97.0507,2.0,318.0858102,14.05644692,-99999.0,'11111222,11111222,99999999' 
TABS,ioos:station:wmo:42044:1,2009-03-03T17:00:00Z,26.1914,-97.0507,2.0,311.6579526,13.82624316,-99999.0,'11111222,11111222,99999999' 
TABS,ioos:station:wmo:42044:1,2009-03-03T17:30:00Z,26.1914,-97.0507,2.0,312.1393894,13.74207044,-99999.0,'11111222,11111222,99999999' 
TABS,ioos:station:wmo:42044:1,2009-03-03T18:00:00Z,26.1914,-97.0507,2.0,313.415465,14.31731818,-99999.0,'11111222,11111222,99999999' 
TABS,ioos:station:wmo:42044:1,2009-03-03T18:30:00Z,26.1914,-97.0507,2.0,316.8214099,13.79555001,-99999.0,'11111222,11111222,99999999' 
TABS,ioos:station:wmo:42044:1,2009-03-03T19:00:00Z,26.1914,-97.0507,2.0,315.3184856,16.55362498,-99999.0,'11111222,11111222,99999999' 
TABS,ioos:station:wmo:42044:1,2009-03-03T19:30:00Z,26.1914,-97.0507,2.0,320.1414702,15.15061055,-99999.0,'11111222,11111222,99999999' 
TABS,ioos:station:wmo:42044:1,2009-03-03T20:00:00Z,26.1914,-97.0507,2.0,319.3172056,17.47268153,-99999.0,'11111222,11111222,99999999' 
TABS,ioos:station:wmo:42044:1,2009-03-03T20:30:00Z,26.1914,-97.0507,2.0,326.699335,18.37764131,-99999.0,'11111222,11111222,99999999' 
TABS,ioos:station:wmo:42044:1,2009-03-03T21:00:00Z,26.1914,-97.0507,2.0,320.4601802,17.68720441,-99999.0,'11111222,11111222,99999999' 
TABS,ioos:station:wmo:42044:1,2009-03-03T21:30:00Z,26.1914,-97.0507,2.0,318.1759129,15.95561657,-99999.0,'11111222,11111222,99999999' 
TABS,ioos:station:wmo:42044:1,2009-03-03T22:00:00Z,26.1914,-97.0507,2.0,321.9389947,13.75497365,-99999.0,'11111222,11111222,99999999' 
TABS,ioos:station:wmo:42044:1,2009-03-03T22:30:00Z,26.1914,-97.0507,2.0,325.7752847,14.25919002,-99999.0,'11111222,11111222,99999999' 
TABS,ioos:station:wmo:42044:1,2009-03-03T23:00:00Z,26.1914,-97.0507,2.0,319.3908057,15.14825402,-99999.0,'11111222,11111222,99999999' 
TABS,ioos:station:wmo:42044:1,2009-03-03T23:30:00Z,26.1914,-97.0507,2.0,327.3944826,14.36375995,-99999.0,'11111222,11111222,99999999' 
TABS,ioos:station:wmo:42044:1,2009-03-04T00:00:00Z,26.1914,-97.0507,2.0,327.4040391,15.11001324,-99999.0,'11111222,11111222,99999999' 
TABS,ioos:station:wmo:42044:1,2009-03-04T00:30:00Z,26.1914,-97.0507,2.0,321.5125027,16.6466363,-99999.0,'11111222,11111222,99999999' 
TABS,ioos:station:wmo:42044:1,2009-03-04T01:00:00Z,26.1914,-97.0507,2.0,330.7557184,14.062354,-99999.0,'11111222,11111222,99999999' 
TABS,ioos:station:wmo:42044:1,2009-03-04T01:30:00Z,26.1914,-97.0507,2.0,322.6593161,12.89243577,-99999.0,'11111222,11111222,99999999' 
TABS,ioos:station:wmo:42044:1,2009-03-04T02:00:00Z,26.1914,-97.0507,2.0,318.630883,13.51164313,-99999.0,'11111222,11111222,99999999' 
TABS,ioos:station:wmo:42044:1,2009-03-04T02:30:00Z,26.1914,-97.0507,2.0,319.6093793,12.40742117,-99999.0,'11111222,11111222,99999999' 
TABS,ioos:station:wmo:42044:1,2009-03-04T03:00:00Z,26.1914,-97.0507,2.0,327.4814668,13.83988801,-99999.0,'11111222,11111222,99999999' 
TABS,ioos:station:wmo:42044:1,2009-03-04T03:30:00Z,26.1914,-97.0507,2.0,322.3134042,11.22114076,-99999.0,'11111222,11111222,99999999' 
TABS,ioos:station:wmo:42044:1,2009-03-04T04:00:00Z,26.1914,-97.0507,2.0,321.8825233,13.86728885,-99999.0,'11111222,11111222,99999999' 
TABS,ioos:station:wmo:42044:1,2009-03-04T04:30:00Z,26.1914,-97.0507,2.0,327.2650607,12.98178724,-99999.0,'11111222,11111222,99999999' 
TABS,ioos:station:wmo:42044:1,2009-03-04T05:00:00Z,26.1914,-97.0507,2.0,330.4438706,13.19736716,-99999.0,'11111222,11111222,99999999' 
TABS,ioos:station:wmo:42044:1,2009-03-04T05:30:00Z,26.1914,-97.0507,2.0,320.7815284,13.12702937,-99999.0,'11111222,11111222,99999999' 
TABS,ioos:station:wmo:42044:1,2009-03-04T06:00:00Z,26.1914,-97.0507,2.0,330.8951207,12.10902556,-99999.0,'11111222,11111222,99999999' 
TABS,ioos:station:wmo:42044:1,2009-03-04T06:30:00Z,26.1914,-97.0507,2.0,320.4472458,14.5259251,-99999.0,'11111222,11111222,99999999' 
TABS,ioos:station:wmo:42044:1,2009-03-04T07:00:00Z,26.1914,-97.0507,2.0,325.3504191,14.4048117,-99999.0,'11111222,11111222,99999999' 
TABS,ioos:station:wmo:42044:1,2009-03-04T07:30:00Z,26.1914,-97.0507,2.0,326.0230279,14.38633032,-99999.0,'11111222,11111222,99999999' 
TABS,ioos:station:wmo:42044:1,2009-03-04T08:00:00Z,26.1914,-97.0507,2.0,330.0563149,15.70661326,-99999.0,'11111222,11111222,99999999' 
TABS,ioos:station:wmo:42044:1,2009-03-04T08:30:00Z,26.1914,-97.0507,2.0,325.1977274,15.85632051,-99999.0,'11111222,11111222,99999999' 
TABS,ioos:station:wmo:42044:1,2009-03-04T09:00:00Z,26.1914,-97.0507,2.0,328.3658131,16.70167656,-99999.0,'11111222,11111222,99999999' 
TABS,ioos:station:wmo:42044:1,2009-03-04T09:30:00Z,26.1914,-97.0507,2.0,332.6049079,15.4304893,-99999.0,'11111222,11111222,99999999' 
TABS,ioos:station:wmo:42044:1,2009-03-04T10:00:00Z,26.1914,-97.0507,2.0,330.6681604,17.04529554,-99999.0,'11111222,11111222,99999999' 
TABS,ioos:station:wmo:42044:1,2009-03-04T10:30:00Z,26.1914,-97.0507,2.0,326.8060804,21.15151058,-99999.0,'11111222,11111222,99999999' 
TABS,ioos:station:wmo:42044:1,2009-03-04T11:00:00Z,26.1914,-97.0507,2.0,326.4625607,19.81950807,-99999.0,'11111222,11111222,99999999' 
TABS,ioos:station:wmo:42044:1,2009-03-04T11:30:00Z,26.1914,-97.0507,2.0,326.0685003,21.69451774,-99999.0,'11111222,11111222,99999999' 
TABS,ioos:station:wmo:42044:1,2009-03-04T12:00:00Z,26.1914,-97.0507,2.0,325.2054205,20.7135825,-99999.0,'11111222,11111222,99999999' 
TABS,ioos:station:wmo:42044:1,2009-03-04T12:30:00Z,26.1914,-97.0507,2.0,327.3515866,22.28043985,-99999.0,'11111222,11111222,99999999' 
TABS,ioos:station:wmo:42044:1,2009-03-04T13:00:00Z,26.1914,-97.0507,2.0,328.7661092,20.71211481,-99999.0,'11111222,11111222,99999999' 
TABS,ioos:station:wmo:42044:1,2009-03-04T13:30:00Z,26.1914,-97.0507,2.0,333.4846888,20.7194136,-99999.0,'11111222,11111222,99999999' 
TABS,ioos:station:wmo:42044:1,2009-03-04T21:30:00Z,26.1914,-97.0507,2.0,347.4574706,26.70739411,-99999.0,'11111222,11111222,99999999' 
TABS,ioos:station:wmo:42044:1,2009-03-04T22:00:00Z,26.1914,-97.0507,2.0,349.7864316,29.83276219,-99999.0,'11111222,11111222,99999999' 
TABS,ioos:station:wmo:42044:1,2009-03-04T22:30:00Z,26.1914,-97.0507,2.0,354.6581293,29.85969357,-99999.0,'11111222,11111222,99999999' 
TABS,ioos:station:wmo:42044:1,2009-03-04T23:00:00Z,26.1914,-97.0507,2.0,355.8532245,27.93313445,-99999.0,'11111222,11111222,99999999' 
TABS,ioos:station:wmo:42044:1,2009-03-04T23:30:00Z,26.1914,-97.0507,2.0,355.7724929,29.29972696,-99999.0,'11111222,11111222,99999999' 
TABS,ioos:station:wmo:42044:1,2009-03-05T00:00:00Z,26.1914,-97.0507,2.0,1.19172756,30.29655096,-99999.0,'11111222,11111222,99999999' 
TABS,ioos:station:wmo:42044:1,2009-03-05T00:30:00Z,26.1914,-97.0507,2.0,357.3619206,26.93855416,-99999.0,'11111222,11111222,99999999' 
TABS,ioos:station:wmo:42044:1,2009-03-05T01:00:00Z,26.1914,-97.0507,2.0,0.086046568,26.70002996,-99999.0,'11111222,11111222,99999999' 
TABS,ioos:station:wmo:42044:1,2009-03-05T01:30:00Z,26.1914,-97.0507,2.0,356.5747043,26.77784345,-99999.0,'11111222,11111222,99999999' 
TABS,ioos:station:wmo:42044:1,2009-03-05T02:00:00Z,26.1914,-97.0507,2.0,356.1341562,25.65838849,-99999.0,'11111222,11111222,99999999' 
TABS,ioos:station:wmo:42044:1,2009-03-05T02:30:00Z,26.1914,-97.0507,2.0,358.4952916,23.98827422,-99999.0,'11111222,11111222,99999999' 
TABS,ioos:station:wmo:42044:1,2009-03-05T03:00:00Z,26.1914,-97.0507,2.0,359.6498542,24.53045862,-99999.0,'11111222,11144222,99999999' 
TABS,ioos:station:wmo:42044:1,2009-03-05T03:30:00Z,26.1914,-97.0507,2.0,357.3228681,19.48126536,-99999.0,'11111222,11111222,99999999' 
TABS,ioos:station:wmo:42044:1,2009-03-05T04:00:00Z,26.1914,-97.0507,2.0,359.328,22.16152522,-99999.0,'11111222,11144222,99999999' 
TABS,ioos:station:wmo:42044:1,2009-03-05T04:30:00Z,26.1914,-97.0507,2.0,356.903007,19.61865694,-99999.0,'11111222,11111222,99999999' 
TABS,ioos:station:wmo:42044:1,2009-03-05T05:00:00Z,26.1914,-97.0507,2.0,5.221797648,15.27338207,-99999.0,'11111222,11111222,99999999' 
TABS,ioos:station:wmo:42044:1,2009-03-05T05:30:00Z,26.1914,-97.0507,2.0,357.5534223,19.20751155,-99999.0,'11111222,11111222,99999999' 
TABS,ioos:station:wmo:42044:1,2009-03-05T06:00:00Z,26.1914,-97.0507,2.0,6.235244091,16.84967062,-99999.0,'11111222,11111222,99999999' 
TABS,ioos:station:wmo:42044:1,2009-03-05T06:30:00Z,26.1914,-97.0507,2.0,351.2322977,16.00706094,-99999.0,'11111222,11111222,99999999' 
TABS,ioos:station:wmo:42044:1,2009-03-05T07:00:00Z,26.1914,-97.0507,2.0,356.7854077,19.08002621,-99999.0,'11111222,11111222,99999999' 
TABS,ioos:station:wmo:42044:1,2009-03-05T07:30:00Z,26.1914,-97.0507,2.0,0.997097703,18.39278391,-99999.0,'11111222,11111222,99999999' 
TABS,ioos:station:wmo:42044:1,2009-03-05T08:00:00Z,26.1914,-97.0507,2.0,351.0177098,18.06150603,-99999.0,'11111222,11111222,99999999' 
TABS,ioos:station:wmo:42044:1,2009-03-05T08:30:00Z,26.1914,-97.0507,2.0,359.6441404,17.7003418,-99999.0,'11111222,11144222,99999999' 
TABS,ioos:station:wmo:42044:1,2009-03-05T09:00:00Z,26.1914,-97.0507,2.0,359.081599,18.71240498,-99999.0,'11111222,11144222,99999999' 
TABS,ioos:station:wmo:42044:1,2009-03-05T09:30:00Z,26.1914,-97.0507,2.0,354.7954515,20.06272165,-99999.0,'11111222,11111222,99999999' 
TABS,ioos:station:wmo:42044:1,2009-03-05T10:00:00Z,26.1914,-97.0507,2.0,354.7579197,21.67064374,-99999.0,'11111222,11111222,99999999' 
TABS,ioos:station:wmo:42044:1,2009-03-05T10:30:00Z,26.1914,-97.0507,2.0,353.7279267,20.50273153,-99999.0,'11111222,11111222,99999999' 
TABS,ioos:station:wmo:42044:1,2009-03-05T11:00:00Z,26.1914,-97.0507,2.0,3.685850886,19.28989632,-99999.0,'11111222,11111222,99999999' 
TABS,ioos:station:wmo:42044:1,2009-03-05T11:30:00Z,26.1914,-97.0507,2.0,352.5891829,20.62227194,-99999.0,'11111222,11111222,99999999' 
TABS,ioos:station:wmo:42044:1,2009-03-05T12:00:00Z,26.1914,-97.0507,2.0,357.7556005,19.91528057,-99999.0,'11111222,11111222,99999999' 
TABS,ioos:station:wmo:42044:1,2009-03-05T12:30:00Z,26.1914,-97.0507,2.0,356.4464898,23.71560246,-99999.0,'11111222,11111222,99999999' 